Weather History for Madera, CA

Change the Weather History Date:

Wednesday, December 12, 2012

  Actual Average Record
Temperature  
Mean Temperature 45 °F 46 °F  
Max Temperature 51 °F 55 °F 59 °F (1999)
Min Temperature 39 °F 36 °F 24 °F (2013)
Degree Days  
Heating Degree Days 20    
Month to date heating degree days 145  
Since 1 July heating degree days 513  
Cooling Degree Days 0    
Month to date cooling degree days 0  
Year to date cooling degree days 1737  
Moisture  
Dew Point 45 °F    
Average Humidity 93    
Maximum Humidity 100    
Minimum Humidity 86    
Precipitation  
Precipitation 0.22 in 0.05 in 1.32 in (2014)
Month to date precipitation 0.93 0.47  
Year to date precipitation 9.33 10.79  
Since 1 July precipitation 3.11 2.79  
Snow  
Snow 0.00 in - - ()
Month to date snowfall 0.0  
Since 1 July snowfall 0.0  
Snow Depth 0.00 in    
Sea Level Pressure  
Sea Level Pressure 29.89 in    
Wind  
Wind Speed 4 mph (North)    
Max Wind Speed 13 mph    
Max Gust Speed 15 mph    
Visibility 6 miles    
Events Fog , Rain    
T = Trace of Precipitation, MM = Missing Value Source: NWS Daily Summary

Daily Weather History Graph

Daily Weather History Graph

Search for Another Location

Airport:

Trip Planner

Search our weather history database for the weather conditions in past years. The results will help you decide how hot, cold, wet, or windy it might be!

Date:

Astronomy

Dec. 12, 2012 Rise Set
Actual Time 7:04 AM PST 4:44 PM PST
Civil Twilight 6:35 AM PST 5:13 PM PST
Nautical Twilight 6:03 AM PST 5:45 PM PST
Astronomical Twilight 5:31 AM PST 6:17 PM PST
Moon 6:15 AM PST (12/12) 4:26 PM PST (12/12)
Length of Visible Light 10h 37m
Length of Day
9h 39m
Waning Crescent, 0% of the Moon is Illuminated
Dec 12
Waning Crescent
Dec 13
New
Dec 19
First Quarter
Dec 28
Full
Jan 4
Last Quarter

Hourly Weather History & Observations

Time (PST) Temp. Windchill Dew Point Humidity Pressure Visibility Wind Dir Wind Speed Gust Speed Precip Events Conditions
12:03 AM 48.2 °F - 44.6 °F 87% 29.88 in 4.0 mi NNW 12.7 mph - N/A   Clear
12:53 AM 46.9 °F - 44.1 °F 90% 29.87 in 10.0 mi North 8.1 mph - N/A   Clear
1:53 AM 46.9 °F - 44.1 °F 90% 29.87 in 10.0 mi North 5.8 mph - N/A   Mostly Cloudy
2:53 AM 48.0 °F - 44.1 °F 86% 29.85 in 10.0 mi NNW 5.8 mph - N/A   Overcast
3:53 AM 48.9 °F - 44.1 °F 83% 29.85 in 10.0 mi NNE 4.6 mph - N/A   Overcast
4:53 AM 48.0 °F - 44.1 °F 86% 29.86 in 10.0 mi Calm Calm - N/A   Mostly Cloudy
5:53 AM 46.0 °F - 44.1 °F 93% 29.87 in 9.0 mi Calm Calm - N/A   Mostly Cloudy
6:24 AM 46.4 °F - 44.6 °F 93% 29.87 in 8.0 mi Calm Calm - N/A   Overcast
6:42 AM 46.4 °F 45.2 °F 44.6 °F 93% 29.88 in 8.0 mi SSW 3.5 mph - N/A   Overcast
6:53 AM 46.9 °F - 44.1 °F 90% 29.88 in 8.0 mi SSE 3.5 mph - N/A   Overcast
7:32 AM 46.4 °F 45.2 °F 44.6 °F 93% 29.89 in 2.5 mi SSE 3.5 mph - 0.00 in Rain Light Rain
7:38 AM 46.4 °F 45.2 °F 44.6 °F 93% 29.89 in 1.5 mi SSE 3.5 mph - 0.01 in Rain Light Rain
7:44 AM 46.4 °F - 44.6 °F 93% 29.89 in 2.0 mi Calm Calm - 0.01 in Rain Light Rain
7:53 AM 46.9 °F - 45.0 °F 93% 29.89 in 1.8 mi ESE 3.5 mph - 0.02 in Rain Light Rain
8:28 AM 48.2 °F - 46.4 °F 93% 29.89 in 2.5 mi ESE 4.6 mph - 0.03 in Rain Light Rain
8:53 AM 50.0 °F - 48.9 °F 96% 29.90 in 2.5 mi SW 3.5 mph - 0.03 in   Overcast
9:21 AM 48.2 °F - 46.4 °F 93% 29.91 in 2.5 mi West 6.9 mph - N/A   Overcast
9:28 AM 48.2 °F - 46.4 °F 93% 29.91 in 2.5 mi WNW 3.5 mph - N/A   Overcast
9:43 AM 48.2 °F - 46.4 °F 93% 29.93 in 1.8 mi West 8.1 mph - 0.00 in Rain Light Rain
9:53 AM 48.0 °F - 46.9 °F 96% 29.93 in 1.2 mi West 6.9 mph - 0.03 in Rain Light Rain
9:58 AM 48.2 °F - 46.4 °F 93% 29.93 in 2.0 mi West 5.8 mph - 0.00 in Rain Light Rain
10:12 AM 48.2 °F - 46.4 °F 93% 29.93 in 3.0 mi WNW 5.8 mph - 0.00 in Rain Light Rain
10:28 AM 48.2 °F - 48.2 °F 100% 29.93 in 3.0 mi Calm Calm - 0.01 in Rain Light Rain
10:36 AM 48.2 °F - 48.2 °F 100% 29.93 in 4.0 mi Calm Calm - 0.01 in Rain Light Rain
10:53 AM 48.9 °F - 48.9 °F 100% 29.92 in 3.0 mi Calm Calm - 0.02 in Rain Light Rain
11:29 AM 48.2 °F - 48.2 °F 100% 29.92 in 2.0 mi Calm Calm - 0.01 in Rain Light Rain
11:37 AM 50.0 °F - 48.2 °F 94% 29.91 in 1.8 mi Calm Calm - 0.02 in Rain Light Rain
11:53 AM 50.0 °F - 46.9 °F 89% 29.90 in 6.0 mi Calm Calm - 0.03 in Rain Light Rain
12:53 PM 50.0 °F - 46.9 °F 89% 29.89 in 6.0 mi Calm Calm - 0.05 in Rain Light Rain
1:29 PM 50.0 °F - 46.4 °F 87% 29.88 in 8.0 mi NE 4.6 mph - 0.01 in Rain Light Rain
1:39 PM 51.8 °F - 46.4 °F 82% 29.88 in 10.0 mi North 10.4 mph - 0.01 in Rain Light Rain
1:45 PM 48.2 °F - 44.6 °F 87% 29.87 in 10.0 mi NNE 9.2 mph - 0.01 in Rain Light Rain
1:51 PM 48.2 °F - 44.6 °F 87% 29.87 in 10.0 mi NNE 9.2 mph - 0.01 in Rain Light Rain
1:53 PM 48.9 °F - 45.0 °F 86% 29.87 in 10.0 mi NNE 9.2 mph - 0.01 in   Overcast
2:04 PM 48.2 °F - 44.6 °F 87% 29.86 in 10.0 mi NE 10.4 mph - N/A   Overcast
2:53 PM 48.9 °F - 46.0 °F 90% 29.87 in 10.0 mi NNE 5.8 mph - 0.01 in Rain Light Rain
3:53 PM 48.9 °F - 45.0 °F 86% 29.86 in 10.0 mi ENE 9.2 mph - 0.01 in Rain Light Rain
4:53 PM 48.9 °F - 44.1 °F 83% 29.87 in 10.0 mi NE 3.5 mph - 0.00 in   Overcast
5:53 PM 46.9 °F - 43.0 °F 86% 29.86 in 10.0 mi East 6.9 mph - 0.01 in   Overcast
6:53 PM 46.9 °F - 43.0 °F 86% 29.86 in 10.0 mi Calm Calm - N/A   Mostly Cloudy
7:53 PM 46.0 °F - 43.0 °F 89% 29.87 in 10.0 mi Calm Calm - N/A   Overcast
8:53 PM 42.1 °F 40.2 °F 41.0 °F 96% 29.89 in 7.0 mi WSW 3.5 mph - N/A   Clear
9:27 PM 42.8 °F - 41.0 °F 93% 29.89 in 1.5 mi Calm Calm - N/A   Partly Cloudy
9:34 PM 42.8 °F - 42.8 °F 100% 29.89 in 0.8 mi Calm Calm - N/A   Partly Cloudy
9:53 PM 42.1 °F 40.2 °F 41.0 °F 96% 29.89 in 1.5 mi WSW 3.5 mph - N/A   Partly Cloudy
10:04 PM 42.8 °F 40.1 °F 41.0 °F 93% 29.89 in 0.5 mi West 4.6 mph - N/A Fog Fog
10:21 PM 39.2 °F - 39.2 °F 100% 29.90 in 0.2 mi Calm Calm - N/A Fog Fog
10:53 PM 42.1 °F 37.7 °F 39.9 °F 92% 29.91 in 0.2 mi NNW 6.9 mph - N/A Fog Fog
11:22 PM 42.8 °F 41.1 °F 42.8 °F 100% 29.92 in 1.0 mi ENE 3.5 mph - N/A   Overcast
11:27 PM 42.8 °F 41.1 °F 42.8 °F 100% 29.92 in 3.0 mi NE 3.5 mph - N/A   Overcast
11:38 PM 42.8 °F - 42.8 °F 100% 29.92 in 5.0 mi Calm Calm - N/A   Overcast
11:53 PM 44.1 °F - 43.0 °F 96% 29.91 in 7.0 mi Calm Calm - N/A   Overcast